DELTA 1 DEB

Satellite information

Favourite Embed

Satellite Type and Status

DEBRISIN ORBIT

Key statistics

Satellite DELTA 1 DEB at a glance.

Uptime

21225

Days in orbit

Revolutions

≈ 12.5

Per day

Orbit

SSO

Sun Synchronous Orbit

Inclination

102.4

Latest

Satellite identification and parameters

Extended collection of information and parameters for DELTA 1 DEB.

Object identification

Identified? True

Debris? True

Object name: DELTA 1 DEB

International designator: 1967-114D

Object number (NORAD): 3123

Object ID (CCSDS): 3123

Country: UNITED STATES OF AMERICA (US)

Current information (Y/N): Y

RCS size: SMALL

Orbital parameters

Period: 115.375 minutes

Inclination: 102.448 deg

SMA: 7850.592 km

Apoapsis: 1494.651 km

Periapsis: 1450.263 km

RAAN: 113.1964 deg

Eccentricy: 0.00282705

Argument of periapsis: 238.4056 deg

Mean anomaly: 191.2723 deg

Mean motion: 12.48099431 rev/day

Mean motion (dot): -0.00000032 rev/day2

B* drag term: 0.00010900429 1/REarth

Two-line elements (TLE)

Creation date: Dec. 16, 2025, 6:50 p.m.

Reference frame: TEME

Reference center: EARTH

Epoch: Dec. 16, 2025, 7:01 a.m. UTC

TLE line 0: 0 DELTA 1 DEB

TLE line 1: 1 03123U 67114D 25350.29251218 -.00000032 00000-0 10900-3 0 9992

TLE line 2: 2 03123 102.4480 113.1964 0028270 238.4056 191.2723 12.48099431645946

Live tracking on map

Real-time ground track for satellite DELTA 1 DEB.

In-orbit conjunctions

A list of the most updated potential collisions computed for object DELTA 1 DEB.

Target Orbit TCA Probability of collision Miss distance Type
COSMOS 1823 DEB LEO 2024-12-21 09:39:13 0.0001300908 23.0 (m) DEBRIS

Associated space launch

The ESSA series was the second generation of US meterological satellites after the TIROS (Television & Infra-Red Observation Satellite) series. They were also called OT (Operational TIROS), TOS (TIROS Operational Satellite).

DELTA 1 DEB was lifted into orbit during the mission ‘Thor Delta E1 | ESSA 6’, on board a Thor Delta E1 space rocket.

The launch took place on Nov. 10, 1967, 5:53 p.m. from Space Launch Complex 2E.

For more information about the launch, click the button.

Launch to space Thor Delta E1 | ESSA 6
Thor Delta E1 | ESSA 6

Agency: N/A

Status: Launch Successful

Launch date: Nov. 10, 1967, 5:53 p.m. UTC

Rocket: Thor Delta E1

Launch pad: Space Launch Complex 2E

Location: Vandenberg SFB, CA, USA

...

Latest news about this satellite

There are no fresh news available about this satellite. Check back as we update our databases every day.


Newsletter sign-up

Weekly statistics, charts and insights to help you stay on top of the space industry.